Tracking 20242 objects as of 24-Jan-2020
HD Live streaming from Space Station
objects crossing your sky now

COSMOS 2251 DEB

Track COSMOS 2251 DEB now!
10-day predictions


NORAD ID: 34054
Int'l Code: 1993-036JR
Perigee: 687.1 km
Apogee: 732.5 km
Inclination: 74.0 °
Period: 98.8 minutes
Semi major axis: 7080 km
RCS: 0.028 m2 (small)
Launch date: June 16, 1993
Source: Commonwealth of Independent States (former USSR) (CIS)
Launch site: PLESETSK MISSILE AND SPACE COMPLEX (PKMTR)

Note: This is SATELLITE DEBRIS
aabbcc
Your satellite tracking list
Your tracking list is empty




NASA's NSSDC Master Catalog

Two Line Element Set (TLE):
1 34054U 93036JR  20023.58859316 +.00000561 +00000-0 +13044-3 0  9996
2 34054 074.0370 083.3117 0032027 358.9546 151.4804 14.57059312578792
Source of the keplerian elements: AFSPC